Location: Weatherford
(35.5260°N, 98.7070°W)
Time: 06:04:02
(UTC-05:00)

Amateur Radio Satellites - All Passes

Search period start: 25 May 2016 05:34
Search period end: 26 May 2016 05:34
Location: Weatherford, 35.5260°N, 98.7070°W

Satellite Date Start Highest point End Downlink Frequencies (MHz)
Time Altitude Azimuth
STARS 25 May 05:41:57 05:45:52 31° 262° (W) 05:49:47 437.465
RS-15 25 May 05:44:12 05:54:59 38° 255° (WSW) 06:05:41 29.354- 29.394
YUBILEINY 25 May 05:51:56 05:59:50 40° 273° (W) 06:07:47 435.215
CUBESAT XI-V 25 May 06:08:25 06:13:01 67° 76° (ENE) 06:17:40 437.345
ISS 25 May 06:17:08 06:20:24 71° 42° (NE) 06:23:37 145.825
HORYU 2 25 May 06:18:12 06:22:37 74° 101° (ESE) 06:27:03 437.375
PHONESAT 2.4 25 May 06:27:37 06:29:33 15° 216° (SW) 06:31:29 2401.200-2431.200
AO-85 25 May 06:32:34 06:36:59 26° 110° (ESE) 06:41:25 145.980
AO-7 25 May 06:39:57 06:47:27 39° 297° (WNW) 06:54:57 29.400- 29.500
Cosmos 2491 25 May 06:42:08 06:49:53 34° 286° (WNW) 06:57:42 435.465 / 435.565
NOAA 18 25 May 06:43:49 06:47:39 19° 95° (E) 06:51:29 137.9125
Cosmos 2504 25 May 06:46:49 06:55:04 61° 268° (W) 07:03:41 435.465 / 435.565
BRITE-PL 25 May 07:02:44 07:07:01 27° 94° (E) 07:11:01 437.365/2234.400
Cubesat XI-IV 25 May 07:08:22 07:12:53 27° 96° (E) 07:17:23 437.490
NOAA 15 25 May 07:13:36 07:18:42 46° 100° (E) 07:23:45 137.62
LilacSat-2 25 May 07:21:16 07:24:38 30° 97° (E) 07:28:00 437.200
GOMX 1 25 May 07:42:04 07:46:09 29° 95° (E) 07:49:59 467.674
CUTE-I 25 May 07:54:57 08:00:19 80° 103° (ESE) 08:05:41 437.470
STRAND 1 25 May 07:54:57 07:59:59 69° 75° (ENE) 08:05:04 437.568
JUGNU 25 May 07:56:50 07:59:29 13° 169° (SSE) 08:02:08 437.505
AO-85 25 May 08:12:10 08:17:18 41° 305° (NW) 08:22:22 145.980
NOAA 18 25 May 08:23:17 08:28:30 47° 289° (WNW) 08:33:44 137.9125
BRITE-PL 25 May 08:41:02 08:45:25 28° 291° (WNW) 08:49:30 437.365/2234.400
DOVE 4 25 May 08:44:45 08:49:08 68° 101° (E) 08:53:19 437.250
CANX-2 25 May 08:45:27 08:48:35 20° 95° (E) 08:51:42 2200.000
Cubesat XI-IV 25 May 08:48:11 08:52:54 33° 291° (WNW) 08:57:38 437.490
NOAA 15 25 May 08:54:21 08:58:05 20° 295° (WNW) 09:01:48 137.62
SEEDS 25 May 08:54:23 08:56:51 15° 93° (E) 08:59:20 437.485
LilacSat-2 25 May 08:56:33 08:58:40 15° 291° (WNW) 09:00:47 437.200
PRISM 25 May 09:02:07 09:06:10 61° 75° (ENE) 09:10:18 437.425
HO-68 25 May 09:05:16 09:11:52 38° 99° (E) 09:18:26 435.675
CUTE 1.7 + AOD 2 25 May 09:12:35 09:16:32 35° 98° (E) 09:20:28 437.475
GOMX 1 25 May 09:20:26 09:24:02 22° 292° (WNW) 09:27:28 467.674
CINEMA 3 25 May 09:35:34 09:39:44 72° 102° (ESE) 09:43:50 145.822/145.860
Cosmos 2499 25 May 09:37:28 09:44:14 25° 71° (ENE) 09:51:06 435.465 / 435.565
CUTE-I 25 May 09:37:45 09:39:38 12° 298° (WNW) 09:41:31 437.470
STRAND 1 25 May 09:38:10 09:39:35 11° 269° (W) 09:41:02 437.568
AIST 1 25 May 09:38:27 09:42:48 75° 83° (E) 09:47:06
UWE-3 25 May 09:42:43 09:45:15 16° 94° (E) 09:47:47 435.000/436.395/437.385
SO-50 25 May 09:42:46 09:44:51 13° 44° (NE) 09:46:55 436.795
AUBIESAT-1 25 May 09:43:42 09:47:02 85° 283° (WNW) 09:50:19 437.475
JUGNU 25 May 09:43:58 09:47:45 17° 179° (S) 09:51:31 437.505
COMPASS 1 25 May 09:44:22 09:48:23 42° 99° (E) 09:52:22 437.405
GONETS M04 25 May 09:44:39 09:52:56 46° 77° (ENE) 10:01:08
SRMSAT 25 May 09:45:50 09:47:37 11° 167° (SSE) 09:49:24 437.500
M-CUBED/EXP-1 PRIME 25 May 09:48:02 09:51:15 54° 290° (WNW) 09:54:26 437.505
PCSat 25 May 09:49:32 09:52:40 16° 104° (ESE) 09:55:49 145.827
AAUSAT CUBESAT 2 25 May 09:49:43 09:53:39 38° 98° (E) 09:57:33 437.432
FUNcube-1 25 May 09:55:08 09:57:07 13° 93° (E) 09:59:07 145.935
ANTELSAT 25 May 09:56:48 09:57:39 10° 65° (ENE) 09:58:30 437.575/2403.000
O/OREOS (USA 219) 25 May 10:03:54 10:07:36 24° 102° (ESE) 10:11:17 437.305
CANX-2 25 May 10:20:43 10:24:25 29° 289° (WNW) 10:28:08 2200.000
SEEDS 25 May 10:28:44 10:32:39 37° 287° (WNW) 10:36:35 437.485
Oscar 11 25 May 10:40:57 10:45:15 60° 101° (E) 10:49:32 145.826/435.025
DELFI C3 25 May 10:42:35 10:46:01 26° 96° (E) 10:49:26 145.870
CUBEBUG 2 25 May 10:43:26 10:47:31 60° 285° (WNW) 10:51:39 437.445
UNISAT 6 25 May 10:48:22 10:52:32 43° 73° (ENE) 10:56:39 437.425
CUTE 1.7 + AOD 2 25 May 10:49:20 10:52:03 17° 292° (WNW) 10:54:47 437.475
ZACube-1 25 May 10:49:47 10:53:57 67° 100° (E) 10:58:11 437.345
HO-68 25 May 10:53:03 10:59:26 36° 294° (WNW) 11:05:50 435.675
TIGRISAT 25 May 10:56:45 11:01:01 50° 75° (ENE) 11:05:13 435.000
POPSAT HIP 1 25 May 11:08:20 11:09:45 12° 66° (ENE) 11:11:11 437.405
QB50P1 25 May 11:08:49 11:10:25 12° 66° (ENE) 11:12:01 145.935-145.965
QB50P2 25 May 11:09:45 11:11:43 13° 66° (ENE) 11:13:42 145.880/145.840
POLYITAN 1 25 May 11:12:06 11:14:09 13° 67° (ENE) 11:16:12 437.675
UWE-3 25 May 11:18:01 11:21:47 34° 287° (WNW) 11:25:37 435.000/436.395/437.385
SO-50 25 May 11:21:15 11:25:56 78° 243° (WSW) 11:30:25 436.795
COMPASS 1 25 May 11:21:21 11:23:33 14° 293° (WNW) 11:25:44 437.405
HUMSAT D 25 May 11:21:39 11:25:26 33° 98° (E) 11:29:15 437.325/437.525
AAUSAT CUBESAT 2 25 May 11:26:22 11:28:47 15° 292° (WNW) 11:31:11 437.432
NANOSAT C BR1 25 May 11:27:16 11:30:15 19° 69° (ENE) 11:33:13 145.865
Cosmos 2499 25 May 11:29:21 11:37:51 66° 268° (W) 11:46:35 435.465 / 435.565
ANTELSAT 25 May 11:29:29 11:33:51 61° 259° (W) 11:38:08 437.575/2403.000
FUNcube-1 25 May 11:29:35 11:33:31 41° 286° (WNW) 11:37:30 145.935
PCSat 25 May 11:30:11 11:35:30 59° 299° (WNW) 11:40:53 145.827
SRMSAT 25 May 11:32:22 11:36:00 17° 176° (S) 11:39:38 437.500
JUGNU 25 May 11:32:53 11:36:00 15° 189° (S) 11:39:09 437.505
GONETS M04 25 May 11:41:56 11:49:24 34° 274° (W) 11:56:53
O/OREOS (USA 219) 25 May 11:43:00 11:46:51 27° 297° (WNW) 11:50:44 437.305
JAS-2 25 May 11:46:47 11:48:49 11° 54° (NE) 11:50:53 435.910
ESTCUBE 1 25 May 11:56:28 11:59:03 15° 93° (E) 12:01:38 437.505/2401.250
50 SAT 25 May 12:03:27 12:04:03 10° 93° (E) 12:04:38 437.505
DUCHIFAT 1 25 May 12:05:51 12:09:57 50° 74° (ENE) 12:14:02 145.980
CUSAT 1 25 May 12:13:54 12:19:03 33° 86° (E) 12:25:19 437.405
DELFI C3 25 May 12:17:47 12:20:41 19° 290° (WNW) 12:23:35 145.870
Oscar 11 25 May 12:19:52 12:20:50 11° 295° (WNW) 12:21:48 145.826/435.025
UNISAT 6 25 May 12:27:08 12:29:24 14° 267° (W) 12:31:39 437.425
CUBEBUG 1 25 May 12:28:55 12:32:25 23° 96° (E) 12:35:52 437.445
VELOX 1 25 May 12:28:55 12:32:24 22° 96° (E) 12:35:50 145.980
BEESAT 2 25 May 12:29:43 12:32:53 23° 112° (ESE) 12:36:05 435.950
DX 1 25 May 12:32:46 12:36:01 20° 95° (E) 12:39:14 434.975-435.025
BUGSAT 1 25 May 12:34:58 12:39:03 50° 75° (ENE) 12:43:08 437.445
TIGRISAT 25 May 12:36:25 12:37:55 12° 267° (W) 12:39:26 435.000
POPSAT HIP 1 25 May 12:40:54 12:45:03 53° 260° (W) 12:49:12 437.405
QB50P1 25 May 12:41:35 12:45:43 51° 260° (W) 12:49:52 145.935-145.965
QB50P2 25 May 12:43:00 12:47:06 46° 260° (W) 12:51:11 145.880/145.840
POLYITAN 1 25 May 12:45:28 12:49:32 45° 260° (W) 12:53:37 437.675
HUMSAT D 25 May 12:58:09 13:00:47 17° 292° (WNW) 13:03:26 437.325/437.525
NANOSAT C BR1 25 May 13:02:00 13:05:44 30° 263° (W) 13:09:30 145.865
AISAT 25 May 13:03:56 13:08:20 62° 101° (E) 13:12:40 437.250
SPROUT 25 May 13:07:47 13:11:13 23° 96° (E) 13:14:37 437.525
BEESAT 3 25 May 13:08:46 13:12:39 60° 302° (WNW) 13:16:33 437.485
SRMSAT 25 May 13:21:03 13:24:25 16° 187° (S) 13:27:47 437.500
JAS-2 25 May 13:25:10 13:32:11 64° 72° (ENE) 13:39:50 435.910
UKube-1 25 May 13:26:01 13:30:20 71° 102° (ESE) 13:34:37 .
DANDE 25 May 13:26:20 13:31:06 61° 93° (E) 13:37:30 436.750
ESTCUBE 1 25 May 13:31:43 13:36:02 43° 287° (WNW) 13:40:19 437.505/2401.250
50 SAT 25 May 13:34:26 13:37:56 40° 286° (WNW) 13:41:26 437.505
TISAT 1 25 May 13:42:24 13:44:43 15° 93° (E) 13:47:02 437.305
DUCHIFAT 1 25 May 13:44:47 13:45:53 11° 268° (W) 13:47:00 145.980
CUSAT 1 25 May 13:55:36 14:00:59 36° 289° (WNW) 14:07:37 437.405
Oscar 19 25 May 14:01:13 14:06:20 61° 74° (ENE) 14:11:28 437.125/150
Gurwin Techsat 1B 25 May 14:04:33 14:08:55 27° 68° (ENE) 14:13:17 435.225
CUBEBUG 1 25 May 14:04:59 14:08:37 26° 290° (WNW) 14:12:13 437.445
VELOX 1 25 May 14:05:04 14:08:48 27° 290° (WNW) 14:12:31 145.980
BEESAT 2 25 May 14:07:19 14:10:37 25° 307° (NW) 14:13:56 435.950
DX 1 25 May 14:08:25 14:12:12 29° 289° (WNW) 14:15:56 434.975-435.025
BUGSAT 1 25 May 14:13:34 14:14:40 11° 268° (W) 14:15:47 437.445
AIST 2 25 May 14:18:12 14:21:21 21° 111° (ESE) 14:24:31 435.215
ITAMSAT 1 25 May 14:38:44 14:42:35 22° 66° (ENE) 14:46:27 435.822/435.867
AISAT 25 May 14:43:10 14:44:13 11° 296° (WNW) 14:45:16 437.250
SPROUT 25 May 14:43:38 14:47:04 24° 290° (WNW) 14:50:29 437.525
SWISSCUBE 25 May 14:47:42 14:50:49 17° 94° (E) 14:53:54 437.505
ITUPSAT 1 25 May 14:52:30 14:55:35 17° 94° (E) 14:58:39 437.325
Cosmos 2491 25 May 15:00:02 15:05:53 19° 67° (ENE) 15:11:41 435.465 / 435.565
AO-85 25 May 15:10:06 15:10:33 10° 41° (NE) 15:11:01 145.980
DANDE 25 May 15:11:36 15:14:54 16° 298° (WNW) 15:18:42 436.750
JAS-2 25 May 15:12:20 15:17:41 23° 270° (W) 15:23:24 435.910
TISAT 1 25 May 15:16:39 15:20:29 37° 288° (WNW) 15:24:19 437.305
BEESAT 25 May 15:16:46 15:21:02 32° 98° (E) 15:25:17 436.000
AO-7 25 May 15:42:41 15:50:26 47° 65° (ENE) 15:58:13 29.400- 29.500
Oscar 19 25 May 15:43:33 15:46:00 13° 268° (W) 15:48:28 437.125/150
Gurwin Techsat 1B 25 May 15:43:56 15:48:41 33° 263° (W) 15:53:27 435.225
AIST 2 25 May 15:56:04 15:59:39 28° 306° (NW) 16:03:16 435.215
ITAMSAT 1 25 May 16:16:55 16:21:44 40° 261° (W) 16:26:36 435.822/435.867
SWISSCUBE 25 May 16:24:14 16:28:45 42° 288° (WNW) 16:33:15 437.505
ITUPSAT 1 25 May 16:29:02 16:33:34 43° 288° (WNW) 16:38:06 437.325
AO-85 25 May 16:47:17 16:51:53 85° 61° (ENE) 16:56:03 145.980
MOZHAYETS 4 25 May 16:49:36 16:53:33 27° 96° (E) 16:57:29
KKS-1 25 May 16:51:37 16:55:45 38° 98° (E) 16:59:51 437.445
YUBILEINY 25 May 16:52:00 17:00:14 50° 89° (E) 17:08:29 435.215
BEESAT 25 May 16:54:53 16:58:37 23° 292° (WNW) 17:02:22 436.000
Cosmos 2491 25 May 16:54:53 17:03:39 79° 266° (W) 17:12:19 435.465 / 435.565
HORYU 2 25 May 17:13:11 17:17:23 46° 73° (ENE) 17:21:37 437.375
Cosmos 2504 25 May 17:31:44 17:36:27 19° 82° (E) 17:41:17 435.465 / 435.565
STARS 25 May 17:33:43 17:38:02 58° 101° (ESE) 17:42:18 437.465
AO-7 25 May 17:35:53 17:43:14 35° 261° (W) 17:50:41 29.400- 29.500
CUTE-I 25 May 17:38:34 17:39:49 11° 61° (ENE) 17:41:05 437.470
RS-15 25 May 17:50:21 18:00:56 51° 109° (ESE) 18:12:03 29.354- 29.394
LilacSat-2 25 May 18:02:49 18:03:46 11° 67° (ENE) 18:04:43 437.200
NOAA 18 25 May 18:06:58 18:11:34 28° 67° (ENE) 18:16:10 137.9125
CUBESAT XI-V 25 May 18:08:46 18:12:21 21° 94° (E) 18:15:54 437.345
BRITE-PL 25 May 18:09:28 18:14:03 27° 68° (ENE) 18:18:42 437.365/2234.400
MOZHAYETS 4 25 May 18:26:49 18:30:34 25° 290° (WNW) 18:34:19
Cubesat XI-IV 25 May 18:27:27 18:32:10 34° 69° (ENE) 18:36:54 437.490
KKS-1 25 May 18:29:09 18:31:59 17° 293° (WNW) 18:34:49 437.445
NOAA 15 25 May 18:30:34 18:35:43 55° 73° (ENE) 18:40:54 137.62
GOMX 1 25 May 18:46:06 18:50:43 28° 69° (ENE) 18:55:18 467.674
YUBILEINY 25 May 18:49:46 18:57:13 31° 287° (WNW) 19:04:44 435.215
HORYU 2 25 May 18:52:01 18:54:09 13° 267° (W) 18:56:17 437.375
Cosmos 2491 25 May 18:56:08 18:58:54 12° 284° (WNW) 19:01:41 435.465 / 435.565
STARS 25 May 19:12:32 19:13:51 11° 296° (WNW) 19:15:09 437.465
CUTE-I 25 May 19:13:46 19:19:05 85° 256° (WSW) 19:24:25 437.470
Cosmos 2504 25 May 19:21:55 19:28:59 62° 279° (W) 19:36:24 435.465 / 435.565
HO-68 25 May 19:32:06 19:37:14 22° 61° (ENE) 19:42:22 435.675
LilacSat-2 25 May 19:34:00 19:37:39 43° 261° (W) 19:41:17 437.200
CUBESAT XI-V 25 May 19:45:33 19:49:44 33° 289° (WNW) 19:53:55 437.345
DOVE 4 25 May 19:45:58 19:51:04 52° 74° (ENE) 19:56:02 437.250
BRITE-PL 25 May 19:47:05 19:52:13 39° 263° (W) 19:57:31 437.365/2234.400
NOAA 18 25 May 19:47:12 19:52:04 33° 262° (W) 19:56:57 137.9125
RS-15 25 May 20:02:40 20:13:24 46° 311° (NW) 20:24:49 29.354- 29.394
CUTE 1.7 + AOD 2 25 May 20:03:15 20:06:04 18° 69° (ENE) 20:08:54 437.475
Cubesat XI-IV 25 May 20:07:51 20:12:13 26° 264° (W) 20:16:36 437.490
STRAND 1 25 May 20:08:52 20:13:22 30° 97° (E) 20:17:50 437.568
NOAA 15 25 May 20:12:41 20:15:46 16° 267° (W) 20:18:53 137.62
O/OREOS (USA 219) 25 May 20:16:21 20:20:15 28° 63° (ENE) 20:24:07 437.305
PCSat 25 May 20:20:58 20:26:19 58° 61° (ENE) 20:31:39 145.827
GOMX 1 25 May 20:23:39 20:28:35 34° 264° (W) 20:33:32 467.674
AUBIESAT-1 25 May 20:26:19 20:30:35 72° 71° (ENE) 20:34:32 437.475
M-CUBED/EXP-1 PRIME 25 May 20:30:53 20:35:15 80° 253° (WSW) 20:39:19 437.505
COMPASS 1 25 May 20:32:58 20:35:56 19° 69° (ENE) 20:38:55 437.405
CINEMA 3 25 May 20:33:33 20:38:11 47° 74° (ENE) 20:42:38 145.822/145.860
AAUSAT CUBESAT 2 25 May 20:37:58 20:40:44 18° 68° (ENE) 20:43:29 437.432
PRISM 25 May 20:49:33 20:50:18 10° 92° (E) 20:51:03 437.425
CANX-2 25 May 21:09:44 21:13:52 61° 259° (W) 21:18:03 2200.000
SEEDS 25 May 21:16:50 21:21:00 83° 259° (W) 21:25:12 437.485
HO-68 25 May 21:17:13 21:24:17 66° 257° (WSW) 21:31:25 435.675
DOVE 4 25 May 21:25:37 21:28:56 17° 267° (W) 21:32:11 437.250
DELFI C3 25 May 21:28:06 21:29:04 11° 66° (ENE) 21:30:01 145.870
BEESAT 3 25 May 21:29:04 21:32:31 28° 54° (NE) 21:35:56 437.485
Oscar 11 25 May 21:32:55 21:36:41 31° 72° (ENE) 21:40:28 145.826/435.025
CUTE 1.7 + AOD 2 25 May 21:37:54 21:41:39 32° 263° (W) 21:45:26 437.475
CUBEBUG 2 25 May 21:38:03 21:42:30 74° 76° (ENE) 21:46:49 437.445
ZACube-1 25 May 21:42:45 21:46:38 35° 73° (ENE) 21:50:28 437.345
STRAND 1 25 May 21:48:04 21:52:24 28° 291° (WNW) 21:56:44 437.568
O/OREOS (USA 219) 25 May 21:56:03 21:59:27 22° 259° (WSW) 22:02:50 437.305
AIST 1 25 May 22:04:16 22:08:30 50° 93° (E) 22:12:47
PCSat 25 May 22:05:59 22:09:10 16° 256° (WSW) 22:12:21 145.827
COMPASS 1 25 May 22:07:45 22:11:17 28° 263° (W) 22:14:53 437.405
HUMSAT D 25 May 22:11:10 22:13:43 16° 68° (ENE) 22:16:16 437.325/437.525
UWE-3 25 May 22:11:21 22:15:42 65° 260° (W) 22:19:56 435.000/436.395/437.385
AAUSAT CUBESAT 2 25 May 22:12:18 22:15:57 31° 263° (W) 22:19:38 437.432
CINEMA 3 25 May 22:12:43 22:15:27 15° 267° (W) 22:18:09 145.822/145.860
Cosmos 2499 25 May 22:13:18 22:17:30 17° 80° (E) 22:21:50 435.465 / 435.565
FUNcube-1 25 May 22:21:36 22:25:53 82° 260° (W) 22:30:05 145.935
PRISM 25 May 22:21:49 22:25:53 51° 286° (WNW) 22:29:54 437.425
RS-15 25 May 22:23:20 22:30:14 17° 342° (NNW) 22:37:20 29.354- 29.394
BEESAT 2 25 May 22:27:15 22:31:14 73° 60° (ENE) 22:35:11 435.950
GONETS M04 25 May 22:41:22 22:49:57 59° 91° (E) 22:58:29
UNISAT 6 25 May 22:45:29 22:46:26 11° 92° (E) 22:47:23 437.425
CUSAT 1 25 May 22:52:21 22:58:27 25° 67° (ENE) 23:03:50 437.405
TIGRISAT 25 May 22:52:55 22:54:47 13° 93° (E) 22:56:41 435.000
ISS 25 May 22:54:20 22:57:35 67° 319° (NW) 23:00:50 145.825
ESTCUBE 1 25 May 22:55:41 22:56:01 10° 64° (ENE) 22:56:21 437.505/2401.250
PHONESAT 2.4 25 May 22:57:30 23:00:15 28° 149° (SSE) 23:02:59 2401.200-2431.200
DELFI C3 25 May 22:59:38 23:03:27 48° 260° (W) 23:07:18 145.870
BEESAT 3 25 May 23:07:08 23:10:01 20° 249° (WSW) 23:12:53 437.485
Oscar 11 25 May 23:09:49 23:12:49 19° 266° (W) 23:15:51 145.826/435.025
ZACube-1 25 May 23:20:22 23:23:00 16° 266° (W) 23:25:36 437.345
CUBEBUG 1 25 May 23:23:02 23:25:26 15° 66° (ENE) 23:27:50 437.445
ANTELSAT 25 May 23:24:11 23:28:03 32° 98° (E) 23:31:57 437.575/2403.000
VELOX 1 25 May 23:24:19 23:26:50 15° 66° (ENE) 23:29:21 145.980
DX 1 25 May 23:26:41 23:28:44 13° 65° (ENE) 23:30:45 434.975-435.025
AIST 1 25 May 23:44:56 23:46:24 11° 288° (WNW) 23:47:53
HUMSAT D 25 May 23:45:23 23:49:04 32° 262° (W) 23:52:45 437.325/437.525
AISAT 25 May 23:58:16 00:02:23 37° 72° (ENE) 00:06:31 437.250
SPROUT 25 May 23:59:52 00:01:55 13° 66° (ENE) 00:03:59 437.525
Cosmos 2499 26 May 00:02:28 00:09:34 71° 278° (W) 00:17:11 435.465 / 435.565
DANDE 26 May 00:07:38 00:15:49 51° 76° (ENE) 00:23:12 436.750
50 SAT 26 May 00:09:25 00:12:55 51° 75° (ENE) 00:16:28 437.505
UKube-1 26 May 00:17:31 00:21:33 39° 72° (ENE) 00:25:36 .
UNISAT 6 26 May 00:19:13 00:23:25 53° 285° (WNW) 00:27:39 437.425
AIST 2 26 May 00:19:27 00:23:36 72° 60° (ENE) 00:27:43 435.215
TIGRISAT 26 May 00:27:35 00:31:40 45° 286° (WNW) 00:35:48 435.000
ESTCUBE 1 26 May 00:27:43 00:32:11 69° 258° (WSW) 00:36:42 437.505/2401.250
POPSAT HIP 1 26 May 00:28:56 00:32:36 29° 97° (E) 00:36:14 437.405
QB50P1 26 May 00:29:31 00:33:13 30° 97° (E) 00:36:54 145.935-145.965
QB50P2 26 May 00:30:59 00:34:48 33° 98° (E) 00:38:36 145.880/145.840
POLYITAN 1 26 May 00:33:24 00:37:15 34° 98° (E) 00:41:03 437.675
CUSAT 1 26 May 00:33:35 00:41:08 58° 268° (W) 00:47:23 437.405
ISS 26 May 00:33:36 00:34:32 11° 336° (NNW) 00:35:30 145.825
PHONESAT 2.4 26 May 00:33:48 00:36:53 55° 343° (NNW) 00:39:58 2401.200-2431.200
GONETS M04 26 May 00:40:03 00:47:10 27° 289° (WNW) 00:54:19
RS-15 26 May 00:42:36 00:50:04 18° 20° (NNE) 00:57:35 29.354- 29.394
NANOSAT C BR1 26 May 00:48:50 00:52:55 49° 100° (E) 00:56:58 145.865
CUBEBUG 1 26 May 00:57:03 01:01:18 45° 261° (W) 01:05:34 437.445
VELOX 1 26 May 00:58:37 01:02:53 45° 261° (W) 01:07:10 145.980
DX 1 26 May 01:00:12 01:04:27 50° 260° (W) 01:08:44 434.975-435.025
ANTELSAT 26 May 01:01:33 01:04:31 19° 292° (WNW) 01:07:31 437.575/2403.000
DUCHIFAT 1 26 May 01:28:26 01:32:31 55° 285° (WNW) 01:36:34 145.980
SO-50 26 May 01:31:50 01:36:42 71° 117° (ESE) 01:41:36 436.795
SPROUT 26 May 01:33:18 01:37:26 46° 260° (W) 01:41:35 437.525
AISAT 26 May 01:36:04 01:38:57 17° 266° (W) 01:41:51 437.250
DANDE 26 May 01:51:05 01:58:14 33° 274° (W) 02:04:48 436.750
SWISSCUBE 26 May 01:52:06 01:54:42 15° 65° (ENE) 01:57:19 437.505
BUGSAT 1 26 May 01:55:00 01:58:58 58° 286° (WNW) 02:02:54 437.445
UKube-1 26 May 01:55:14 01:57:43 15° 266° (W) 02:00:13 .
ITUPSAT 1 26 May 01:57:11 01:59:46 15° 65° (ENE) 02:02:23 437.325
TISAT 1 26 May 02:04:36 02:08:50 78° 258° (WSW) 02:13:05 437.305
POPSAT HIP 1 26 May 02:05:10 02:08:10 19° 291° (WNW) 02:11:09 437.405
QB50P1 26 May 02:05:49 02:08:46 19° 291° (WNW) 02:11:41 145.935-145.965
QB50P2 26 May 02:07:35 02:10:19 17° 292° (WNW) 02:13:04 145.880/145.840
POLYITAN 1 26 May 02:10:04 02:12:45 17° 292° (WNW) 02:15:26 437.675
PHONESAT 2.4 26 May 02:11:08 02:13:58 30° 360° (N) 02:16:48 2401.200-2431.200
Oscar 19 26 May 02:16:23 02:20:45 27° 96° (E) 02:25:03 437.125/150
BEESAT 26 May 02:20:31 02:24:27 26° 69° (ENE) 02:28:24 436.000
JAS-2 26 May 02:23:45 02:31:14 74° 102° (ESE) 02:37:51 435.910
Gurwin Techsat 1B 26 May 02:25:10 02:27:27 13° 91° (E) 02:29:44 435.225
NANOSAT C BR1 26 May 02:26:39 02:28:11 12° 294° (WNW) 02:29:42 145.865
RS-15 26 May 02:54:56 03:06:46 49° 50° (NE) 03:18:29 29.354- 29.394
YUBILEINY 26 May 03:06:52 03:13:00 20° 68° (ENE) 03:19:07 435.215
SO-50 26 May 03:14:49 03:17:40 15° 314° (NW) 03:20:32 436.795
SWISSCUBE 26 May 03:27:25 03:32:01 51° 260° (W) 03:36:40 437.505
ITUPSAT 1 26 May 03:32:31 03:37:08 52° 260° (W) 03:41:47 437.325
KKS-1 26 May 03:47:02 03:50:40 25° 69° (ENE) 03:54:19 437.445
PHONESAT 2.4 26 May 03:47:59 03:51:03 53° 16° (NNE) 03:54:07 2401.200-2431.200
MOZHAYETS 4 26 May 03:49:17 03:52:26 19° 68° (ENE) 03:55:36
AO-7 26 May 03:49:35 03:54:22 16° 92° (E) 03:59:07 29.400- 29.500
Oscar 19 26 May 03:55:32 04:00:00 30° 291° (WNW) 04:04:26 437.125/150
Cosmos 2491 26 May 03:57:44 04:04:24 25° 82° (E) 04:11:02 435.465 / 435.565
BEESAT 26 May 03:58:06 04:02:07 27° 263° (W) 04:06:09 436.000
Gurwin Techsat 1B 26 May 04:02:31 04:07:48 66° 286° (WNW) 04:13:03 435.225
JAS-2 26 May 04:10:17 04:15:17 20° 301° (WNW) 04:19:59 435.910
STARS 26 May 04:27:24 04:31:24 35° 72° (ENE) 04:35:25 437.465
ITAMSAT 1 26 May 04:32:17 04:37:31 89° 294° (WNW) 04:42:45 435.822/435.867
YUBILEINY 26 May 05:01:53 05:10:37 75° 267° (W) 05:19:21 435.215
HORYU 2 26 May 05:09:40 05:10:43 11° 92° (E) 05:11:45 437.375
CUBESAT XI-V 26 May 05:10:03 05:12:46 16° 66° (ENE) 05:15:29 437.345
Cosmos 2504 26 May 05:16:38 05:24:32 41° 77° (ENE) 05:32:43 435.465 / 435.565
KKS-1 26 May 05:23:24 05:27:07 25° 263° (W) 05:30:51 437.445
ISS 26 May 05:24:35 05:27:35 34° 36° (NE) 05:30:36 145.825
PHONESAT 2.4 26 May 05:24:57 05:27:42 29° 211° (SSW) 05:30:27 2401.200-2431.200
MOZHAYETS 4 26 May 05:25:09 05:29:18 35° 262° (W) 05:33:30
